Search your local weather  

 

Hazardous Weather Conditions

No active alerts for CHICAGO, ILLINOIS

Current Conditions: CHICAGO, ILLINOIS

Fair


58.0 F

Last Updated on Oct 23 2019, 3:52 pm CDT
Humidity: 48%
Wind Speed: S 10.4 mph
Barometer 29.92 in
Dewpoint: 37.9 F
Visibility: 10.00 mi
Precip: --
Heat Index: NA
Wind Chill: 56 F
Current conditions at:

Chicago / Wheeling, Pal-Waukee Airport, IL (KPWK)

Lat: 42.12083 Lon: -87.90472

Local Radar Image active severe weather and emergency alerts image image weather storm and storm spotter reports image weather observation monitoring service image
Local
Radar
Active
Alerts
Storm Reports Weather
Monitoring

5 Day Forecast for CHICAGO, ILLINOIS

Wednesday

Chance of Rain
High 58 °F
Wednesday
Night
Slight Chance of Rain
Low 43 °F
Thursday

Mostly Cloudy

High 51 °F
Thursday
Night
Mostly Cloudy

Low 43 °F
Friday

Mostly Cloudy

High 49 °F
Friday
Night
Partly Cloudy

Low 43 °F
Saturday

Slight Chance of Showers
High 54 °F
Saturday
Night
Chance of Showers
Low 43 °F
Sunday

Chance of Showers
High 56 °F

Sign-up For Email & Text Message Weather Alert Notification Services


Advertise Here

Observation History for CHICAGO, ILLINOIS


Time Wind
(mph)
Vis
(mi)
Weather Precip (in) Temperature (F) Relative
Humidity
Wind
Chill
(°F)
Heat
Index
(°F)
Pressure
Air Dwpt altimeter
(in)
sea level
(mb)
3:52 pm CDT S 10.4 10.00 Fair -- 58.0 37.9 48% 56 NA 29.92 1013.3
2:52 pm CDT S 9.2 10.00 Fair -- 57.0 39.0 51% 55 NA 29.91 1012.9
1:52 pm CDT S 9.2 10.00 Mostly Cloudy -- 53.0 36.0 52% 50 NA 29.92 1013.5
12:52 pm CDT S 4.6 10.00 Overcast -- 51.0 34.0 52% 50 NA 29.94 1014.1
11:52 am CDT SW 10.4 10.00 Mostly Cloudy -- 52.0 33.1 49% 48 NA 29.97 1015.1
10:52 am CDT SW 9.2 10.00 Fair -- 51.0 34.0 52% 48 NA 29.96 1014.6
9:52 am CDT SW 10.4 10.00 Fair -- 49.0 33.1 55% 45 NA 29.95 1014.2
8:52 am CDT SW 9.2 10.00 Fair -- 44.0 32.0 63% 39 NA 29.94 1014.2
7:52 am CDT SW 5.8 10.00 Fair -- 42.0 30.9 65% 38 NA 29.92 1013.5
6:52 am CDT SW 5.8 10.00 Fair -- 40.0 30.0 68% 36 NA 29.90 1012.9
5:52 am CDT SW 9.2 10.00 Fair -- 42.0 30.0 62% 36 NA 29.89 1012.3
4:52 am CDT SW 6.9 10.00 Fair -- 42.0 30.0 62% 38 NA 29.86 1011.3
3:52 am CDT SW 10.4 G 19.6 10.00 Fair -- 43.0 30.0 60% 37 NA 29.84 1010.5
2:52 am CDT SW 11.5 10.00 Fair -- 44.0 30.0 58% 38 NA 29.83 1010.2
1:52 am CDT SW 9.2 10.00 Fair -- 45.0 30.0 56% 40 NA 29.81 1009.7
12:52 am CDT SW 11.5 G 20.7 10.00 Fair -- 46.0 30.0 54% 41 NA 29.80 1009.4
11:52 pm CDT SW 12.7 G 21.9 10.00 Fair -- 47.0 30.0 52% 41 NA 29.80 1009.2
10:52 pm CDT SW 9.2 G 23.0 10.00 Fair -- 49.0 30.0 48% 45 NA 29.79 1008.9
9:52 pm CDT SW 11.5 G 27.6 10.00 Overcast -- 51.0 32.0 48% 47 NA 29.78 1008.5
8:52 pm CDT SW 11.5 G 25.3 10.00 Overcast -- 51.0 34.0 52% 47 NA 29.77 1008.1
7:52 pm CDT SW 15.0 G 26.5 10.00 Overcast -- 51.0 36.0 56% 46 NA 29.76 1007.8
6:52 pm CDT SW 10.4 G 19.6 10.00 Overcast -- 50.0 35.1 57% 46 NA 29.74 1007.3
5:52 pm CDT W 15.0 G 29.9 10.00 Overcast -- 50.0 35.1 57% 45 NA 29.73 1006.7
4:52 pm CDT SW 16.1 G 31.1 10.00 Overcast -- 51.0 35.1 54% 46 NA 29.69 1005.6

Regional Weather Observation

Chicago, Chicago-OHare International Airport, IL (KORD)

Mostly Cloudy
58.0 F

Chicago/Waukegan Regional Airport, IL (KUGN)

A Few Clouds
56.0 F

Chicago, Chicago Midway Airport, IL (KMDW)

Mostly Cloudy
60.0 F

Kenosha, Kenosha Regional Airport, WI (KENW)

Clear
55.0 F

Chicago / West Chicago, Dupage Airport, IL (KDPA)

Fair
59.0 F

Racine, Batten International Airport, WI (KRAC)

Fair
53.0 F

Advertise Here

Advertise Here